Location: Dornbirn
(47.4124°N, 9.7438°E)
Time: 15:10:41
(UTC+02:00)

ISS - Visible Passes

Search period start: 17 July 2025 00:00
Search period end: 27 July 2025 00:00
Orbit: 415 x 418 km, 51.6° (Epoch: 17 July)

Date Brightness Start Highest point End Pass type
(mag) Time Alt. Az. Time Alt. Az. Time Alt. Az.
17 Jul -3.9 00:22:09 10° WNW 00:25:24 83° W 00:25:24 83° W visible
17 Jul -2.3 21:56:56 10° WNW 22:00:06 38° N 22:03:16 10° ENE visible
17 Jul -3.5 23:33:51 10° WNW 23:37:11 67° NNE 23:38:30 33° E visible
18 Jul -1.2 01:10:53 10° W 01:11:22 13° W 01:11:22 13° W visible
18 Jul -3.1 22:45:31 10° WNW 22:48:49 52° NNE 22:51:38 13° E visible
19 Jul -2.5 00:22:22 10° WNW 00:24:31 31° WSW 00:24:31 31° WSW visible
19 Jul -2.7 21:57:11 10° WNW 22:00:24 43° N 22:03:37 10° E visible
19 Jul -3.8 23:33:57 10° WNW 23:37:17 63° SSW 23:37:41 56° S visible
20 Jul -3.8 22:45:36 10° WNW 22:48:57 89° NNE 22:50:54 23° ESE visible
21 Jul -1.3 00:22:58 10° W 00:23:47 14° WSW 00:23:47 14° WSW visible
21 Jul -3.5 21:57:15 10° WNW 22:00:35 65° NNE 22:03:54 10° ESE visible
21 Jul -2.5 23:34:14 10° W 23:37:01 28° SW 23:37:01 28° SW visible
22 Jul -3.2 22:45:42 10° WNW 22:48:54 43° SW 22:50:17 27° SSE visible
23 Jul -3.7 21:57:15 10° WNW 22:00:36 66° SSW 22:03:35 12° SE visible
23 Jul -1.3 23:35:23 10° WSW 23:36:29 12° SW 23:36:29 12° SW visible
24 Jul -1.9 22:46:09 10° W 22:48:37 19° SW 22:49:50 16° SSW visible
25 Jul -2.4 21:57:24 10° W 22:00:22 29° SW 22:03:13 11° SSE visible
